Retour au catalogue

STARLINK-37588

ActifCommunicationsVLEO
NORAD 69842·PAYLOAD·🇺🇸 United States

Lancé Jul 5, 2026 depuis Cape Canaveral Space Force Station

Loading…

Prochains Passages (prochaines 24 heures)

TLE

FraisSource: CelesTrak SupGP

Époque: Sep 15, 2026, 03:54 UTC

1 69842C 26154Z   26258.16298611  .00068737  00000+0  20335-2 0  2587
2 69842  53.1586 356.5805 0001066  98.1512 121.4413 15.34316340    17

Suivez STARLINK-37588 en temps réel avec AllMySat

Download on the App Store